Le nostre stazioni meteo in Italia

Pubblicità
Il mio iltempo24.it
Alghero, Italia (16520): Temperatura & dewpoint: 15.08.2019 14:00:00 - 21.08.2019 14:00:00 (CEST)Alghero, Italia (16520): velocità del vento: 15.08.2019 14:00:00 - 21.08.2019 14:00:00 (CEST)Alghero, Italia (16520): direzione del vento: 15.08.2019 14:00:00 - 21.08.2019 14:00:00 (CEST)Alghero, Italia (16520): reduced air pressure: 15.08.2019 14:00:00 - 21.08.2019 14:00:00 (CEST)Alghero, Italia (16520): visibility: 15.08.2019 14:00:00 - 21.08.2019 14:00:00 (CEST)Alghero, Italia (16520): precipitazioni: 15.08.2019 14:00:00 - 21.08.2019 14:00:00 (CEST)
Data & Tempo tt [°C] td [°C] ff [km/h] ff [kn] dd ppp [hPa] vv [km] rr [mm]
21.08.2019 14:00:00 30,1 21,6 15 8 NO 1017,1 10 -
21.08.2019 13:00:00 30,0 22,0 13 7 NO - 10 -
21.08.2019 12:00:00 29,0 22,0 11 6 NNO - 10 -
21.08.2019 11:00:00 29,1 21,0 8 4 NO 1017,8 10 0,0
21.08.2019 10:00:00 27,0 22,0 4 2 - - 10 -
21.08.2019 09:00:00 25,0 22,0 4 2 - - 10 -
21.08.2019 08:00:00 21,0 20,0 4 2 N - 10 -
21.08.2019 07:00:00 19,0 19,0 2 1 - - 10 -
21.08.2019 06:00:00 20,0 19,0 2 1 NNO - 10 -
21.08.2019 05:00:00 20,0 19,0 4 2 SSE - 10 -
21.08.2019 04:00:00 20,0 19,0 4 2 - - 10 -
21.08.2019 03:00:00 22,0 21,0 5 3 ESE - 10 -
21.08.2019 02:00:00 22,0 21,0 4 2 - - 10 -
21.08.2019 01:00:00 23,0 22,0 8 4 N - 10 -
21.08.2019 00:00:00 23,0 21,0 5 3 N - 10 -
20.08.2019 23:00:00 24,0 21,0 8 4 E - 10 -
20.08.2019 22:00:00 26,0 21,0 11 6 E - 10 -
20.08.2019 21:00:00 26,0 21,0 11 6 ENE - 10 -
20.08.2019 20:00:00 28,0 21,0 16 9 ENE - 10 -
20.08.2019 19:00:00 30,0 17,0 13 7 NNE - 10 -
20.08.2019 18:00:00 31,0 16,0 15 8 NNO - 10 -
20.08.2019 17:00:00 30,5 16,8 15 8 NO 1016,3 10 0,0
20.08.2019 16:00:00 32,0 19,0 15 8 NNO - 10 -
20.08.2019 15:00:00 32,0 16,0 5 3 - - 10 -
20.08.2019 14:00:00 32,3 13,6 15 8 SO 1016,6 10 -
20.08.2019 13:00:00 32,0 16,0 11 6 O - 10 -
20.08.2019 12:00:00 31,0 17,0 5 3 - - 10 -
20.08.2019 11:00:00 30,1 15,6 5 3 - 1016,8 10 0,0
20.08.2019 10:00:00 28,0 21,0 5 3 - - 10 -
20.08.2019 09:00:00 24,0 22,0 5 3 ENE - 10 -
20.08.2019 08:00:00 21,0 21,0 5 3 NE - 5 -
20.08.2019 07:00:00 20,0 20,0 4 2 - - 2,5 -
20.08.2019 06:00:00 21,0 21,0 4 2 NE - 10 -
20.08.2019 05:00:00 21,0 20,0 2 1 NO - 10 -
20.08.2019 04:00:00 23,0 21,0 4 2 SE - 10 -
20.08.2019 03:00:00 - - - - - - - -
20.08.2019 02:00:00 22,6 21,9 2 1 - 1017,0 10 -
20.08.2019 01:00:00 24,0 22,0 4 2 SSO - 10 -
20.08.2019 00:00:00 25,0 22,0 4 2 - - 10 -
19.08.2019 23:00:00 25,0 22,0 13 7 ENE - 10 -
19.08.2019 22:00:00 26,0 21,0 15 8 ENE - 10 -
19.08.2019 21:00:00 27,0 20,0 15 8 ENE - 10 -
19.08.2019 20:00:00 28,6 17,8 16 9 ENE 1015,7 10 -
19.08.2019 19:00:00 31,0 14,0 22 12 NE - 10 -
19.08.2019 18:00:00 32,0 20,0 22 12 ENE - 10 -
19.08.2019 17:00:00 27,0 20,0 21 11 ENE - - -
19.08.2019 16:00:00 35,0 13,0 18 10 ENE - 10 -
19.08.2019 15:00:00 35,0 12,0 16 9 ENE - 10 -
19.08.2019 14:00:00 34,0 14,0 11 6 - - 10 -
19.08.2019 13:00:00 32,0 22,0 13 7 NO - 10 -
19.08.2019 12:00:00 31,0 20,0 11 6 NNO - 10 -
19.08.2019 11:00:00 30,3 18,7 4 2 - 1015,8 10 0,0
19.08.2019 10:00:00 27,0 19,0 4 2 - - 10 -
19.08.2019 09:00:00 24,0 18,0 4 2 - - 10 -
19.08.2019 08:00:00 20,9 17,3 5 3 E 1015,5 10 -
19.08.2019 07:00:00 19,0 17,0 5 3 NE - 10 -
19.08.2019 06:00:00 19,0 17,0 2 1 - - 10 -
19.08.2019 05:00:00 19,3 17,1 4 2 SE 1015,0 10 0,0
19.08.2019 04:00:00 - - - - - - - -
19.08.2019 03:00:00 21,0 17,0 4 2 SE - 10 -
19.08.2019 02:00:00 21,6 17,9 4 2 SE 1015,3 10 -
19.08.2019 01:00:00 22,0 19,0 5 3 O - 10 -
19.08.2019 00:00:00 23,0 19,0 2 1 - - 10 -
18.08.2019 23:00:00 23,7 19,1 4 2 - 1015,2 10 0,0
18.08.2019 22:00:00 25,0 19,0 2 1 - - 10 -
18.08.2019 21:00:00 27,0 19,0 9 5 ENE - 10 -
18.08.2019 20:00:00 29,0 19,4 9 5 ENE 1014,0 10 -
18.08.2019 19:00:00 32,0 12,0 5 3 N - 10 -
18.08.2019 18:00:00 32,0 14,0 13 7 NO - 10 -
18.08.2019 17:00:00 31,8 15,6 15 8 NNO 1014,5 10 0,0
18.08.2019 16:00:00 32,0 17,0 13 7 NNO - 10 -
18.08.2019 15:00:00 33,0 15,0 13 7 OSO - 10 -
18.08.2019 14:00:00 33,2 16,3 9 5 N 1015,1 10 -
18.08.2019 13:00:00 31,0 18,0 8 4 - - 10 -
18.08.2019 12:00:00 30,0 17,0 11 6 SO - 10 -
18.08.2019 11:00:00 28,6 16,9 11 6 SO 1015,9 10 0,0
18.08.2019 10:00:00 27,0 17,0 4 2 - - 10 -
18.08.2019 09:00:00 24,0 18,0 4 2 - - 10 -
18.08.2019 08:00:00 20,4 17,7 4 2 - 1015,5 10 -
18.08.2019 07:00:00 17,0 16,0 5 3 ENE - 10 -
18.08.2019 06:00:00 18,0 17,0 4 2 ENE - 10 -
18.08.2019 05:00:00 17,9 16,4 8 4 ENE 1015,3 10 0,0
18.08.2019 04:00:00 19,0 17,0 5 3 NE - 10 -
18.08.2019 03:00:00 18,0 17,0 2 1 - - 10 -
18.08.2019 02:00:00 19,3 18,2 4 2 - 1016,2 10 -
18.08.2019 01:00:00 20,0 18,0 4 2 ENE - 10 -
18.08.2019 00:00:00 20,0 18,0 5 3 E - 10 -
17.08.2019 23:00:00 21,4 18,7 5 3 ENE 1016,6 10 0,0
17.08.2019 22:00:00 23,0 19,0 5 3 ENE - 10 -
17.08.2019 21:00:00 24,0 19,0 13 7 ENE - 10 -
17.08.2019 20:00:00 26,1 19,0 15 8 ENE 1015,9 10 -
17.08.2019 19:00:00 29,0 18,0 16 9 ENE - 10 -
17.08.2019 18:00:00 29,0 15,0 11 6 NE - 10 -
17.08.2019 17:00:00 30,0 15,9 13 7 N 1016,3 10 0,0
17.08.2019 16:00:00 30,0 17,0 16 9 N - 10 -
17.08.2019 15:00:00 29,0 17,0 15 8 NNO - 10 -
17.08.2019 14:00:00 29,1 17,1 15 8 NNO 1017,3 10 -
17.08.2019 13:00:00 28,0 19,0 13 7 NNO - 10 -
17.08.2019 12:00:00 27,0 19,0 11 6 NO - 10 -
17.08.2019 11:00:00 25,6 18,3 8 4 - 1018,3 10 0,0
17.08.2019 10:00:00 24,0 18,0 5 3 - - 10 -
17.08.2019 09:00:00 21,0 17,0 4 2 - - 10 -
17.08.2019 08:00:00 18,1 16,2 4 2 - 1017,7 10 -
17.08.2019 07:00:00 15,0 15,0 5 3 ENE - 10 -
17.08.2019 06:00:00 15,0 15,0 2 1 E - 10 -
17.08.2019 05:00:00 15,3 14,6 4 2 NE 1017,2 10 0,0
17.08.2019 04:00:00 16,0 15,0 2 1 - - 10 -
17.08.2019 03:00:00 16,0 15,0 4 2 E - 10 -
17.08.2019 02:00:00 16,9 15,9 2 1 - 1017,6 10 -
17.08.2019 01:00:00 18,0 17,0 2 1 - - 10 -
17.08.2019 00:00:00 19,0 17,0 4 2 - - 10 -
16.08.2019 23:00:00 20,4 17,0 4 2 - 1017,7 10 0,0
16.08.2019 22:00:00 21,0 17,0 5 3 O - 10 -
16.08.2019 21:00:00 23,0 17,0 4 2 - - 10 -
16.08.2019 20:00:00 24,2 17,6 11 6 NO 1016,6 10 -
16.08.2019 19:00:00 26,0 17,0 16 9 NO - 10 -
16.08.2019 18:00:00 26,0 17,0 15 8 NO - 10 -
16.08.2019 17:00:00 26,6 17,4 16 9 NO 1016,6 10 0,0
16.08.2019 16:00:00 27,0 17,0 16 9 NO - 10 -
16.08.2019 15:00:00 27,0 17,0 15 8 NO - 10 -
16.08.2019 14:00:00 27,6 17,5 16 9 NO 1017,0 10 -
16.08.2019 13:00:00 28,0 18,0 15 8 ONO - 10 -
16.08.2019 12:00:00 27,0 18,0 18 10 NO - 10 -
16.08.2019 11:00:00 27,5 18,4 16 9 NO 1017,2 10 0,0
16.08.2019 10:00:00 26,0 19,0 21 11 ONO - 10 -
16.08.2019 09:00:00 26,0 19,0 15 8 NO - 10 -
16.08.2019 08:00:00 23,5 19,5 5 3 NO 1016,5 10 -
16.08.2019 07:00:00 21,0 18,0 8 4 ONO - 10 -
16.08.2019 06:00:00 22,0 18,0 5 3 ONO - 10 -
16.08.2019 05:00:00 21,7 17,9 5 3 O 1016,0 10 0,0
16.08.2019 04:00:00 22,0 19,0 8 4 ONO - 10 -
16.08.2019 03:00:00 22,0 18,0 5 3 NO - 10 -
16.08.2019 02:00:00 22,7 18,6 4 2 O 1017,4 10 -
16.08.2019 01:00:00 22,0 19,0 2 1 - - 10 -
16.08.2019 00:00:00 22,0 19,0 5 3 OSO - 10 -
15.08.2019 23:00:00 23,2 19,8 5 3 S 1017,6 10 0,0
15.08.2019 22:00:00 24,0 19,0 2 1 - - 10 -
15.08.2019 21:00:00 24,0 19,0 5 3 N - 10 -
15.08.2019 20:00:00 25,1 18,9 9 5 NNO 1017,0 10 -
15.08.2019 19:00:00 27,0 17,0 16 9 NO - 10 -
15.08.2019 18:00:00 28,0 17,0 13 7 NNO - 10 -
15.08.2019 17:00:00 28,5 17,3 21 11 NO 1016,8 10 0,0
15.08.2019 16:00:00 28,0 17,0 18 10 NO - 10 -
15.08.2019 15:00:00 29,0 18,0 15 8 NO - 10 -
15.08.2019 14:00:00 28,9 18,0 16 9 SO 1017,1 10 -

tt = Temperatura
td = dewpoint
ff = velocità del vento
dd = direzione del vento
ppp = reduced air pressure
vv = visibility
rr = precipitazioni

Stazioni seguenti

WeatherPro
AMSI
MeteoEarth